When you browse on this site, cookies collect data to enhance your experience and personalize the content and advertising you see.
Visit our Privacy Policy to learn more. By continuing to use the site, you agree to this use of cookies and data.
  • In United Kingdom
  • List of Countries
  • For 7 days
  • Water Temperature
  • Weather Map
  • Weather Widgets
  • user-avatar
    Login

    Hourly Weather Gölmarmara

    Today, 26 August, Monday

    Time Temperature Precipitation Wind Pressure Humidity
    00:00 +26°C° 0 mm 2 mps 747 mmHg 56%
    01:00 +25°C° 0 mm 1 mps 747 mmHg 59%
    02:00 +24°C° 0 mm 1 mps 747 mmHg 62%
    03:00 +24°C° 0 mm 1 mps 747 mmHg 63%
    04:00 +24°C° 0 mm 1 mps 747 mmHg 65%
    05:00 +24°C° 0 mm 1 mps 747 mmHg 67%
    06:00 +26°C° 0 mm 1 mps 748 mmHg 60%
    07:00 +28°C° 0 mm 2 mps 748 mmHg 53%
    08:00 +30°C° 0 mm 2 mps 748 mmHg 45%
    09:00 +34°C° 0 mm 2 mps 748 mmHg 38%
    10:00 +36°C° 0 mm 2 mps 748 mmHg 30%
    11:00 +39°C° 0 mm 3 mps 748 mmHg 23%
    12:00 +40°C° 0 mm 3 mps 748 mmHg 20%
    13:00 +42°C° 0 mm 4 mps 747 mmHg 17%
    14:00 +45°C° 0 mm 5 mps 747 mmHg 15%
    15:00 +44°C° 0 mm 6 mps 747 mmHg 16%
    16:00 +43°C° 0 mm 7 mps 747 mmHg 18%
    17:00 +41°C° 0 mm 8 mps 746 mmHg 19%
    18:00 +38°C° 0 mm 6 mps 747 mmHg 27%
    19:00 +34°C° 0 mm 5 mps 747 mmHg 36%
    20:00 +29°C° 0 mm 4 mps 747 mmHg 44%
    21:00 +28°C° 0 mm 3 mps 747 mmHg 49%
    22:00 +27°C° 0 mm 2 mps 748 mmHg 54%
    23:00 +25°C° 0 mm 2 mps 748 mmHg 59%

    Tomorrow, 27 August, Tuesday

    Time Temperature Precipitation Wind Pressure Humidity
    00:00 +25°C° 0 mm 1 mps 748 mmHg 63%
    01:00 +24°C° 0 mm 1 mps 748 mmHg 66%
    02:00 +23°C° 0 mm 1 mps 747 mmHg 70%
    03:00 +23°C° 0 mm 1 mps 747 mmHg 72%
    04:00 +23°C° 0 mm 1 mps 747 mmHg 74%
    05:00 +22°C° 0 mm 1 mps 747 mmHg 77%
    06:00 +24°C° 0 mm 2 mps 748 mmHg 69%
    07:00 +26°C° 0 mm 2 mps 748 mmHg 61%
    08:00 +28°C° 0 mm 2 mps 748 mmHg 53%
    09:00 +31°C° 0 mm 2 mps 748 mmHg 44%
    10:00 +35°C° 0 mm 3 mps 748 mmHg 36%
    11:00 +37°C° 0 mm 3 mps 748 mmHg 28%
    12:00 +39°C° 0 mm 3 mps 747 mmHg 24%
    13:00 +41°C° 0 mm 4 mps 747 mmHg 20%
    14:00 +43°C° 0 mm 4 mps 747 mmHg 17%
    15:00 +42°C° 0 mm 5 mps 747 mmHg 19%
    16:00 +41°C° 0 mm 7 mps 746 mmHg 21%
    17:00 +40°C° 0 mm 8 mps 746 mmHg 23%
    18:00 +36°C° 0 mm 6 mps 746 mmHg 30%
    19:00 +33°C° 0 mm 5 mps 747 mmHg 37%
    20:00 +29°C° 0 mm 3 mps 747 mmHg 45%
    21:00 +27°C° 0 mm 3 mps 747 mmHg 50%
    22:00 +26°C° 0 mm 2 mps 747 mmHg 55%
    23:00 +24°C° 0 mm 2 mps 748 mmHg 59%

    Day after tomorrow, 28 August, Wednesday

    Time Temperature Precipitation Wind Pressure Humidity
    00:00 +24°C° 0 mm 2 mps 747 mmHg 62%
    01:00 +23°C° 0 mm 1 mps 747 mmHg 66%
    02:00 +22°C° 0 mm 1 mps 747 mmHg 69%
    03:00 +22°C° 0 mm 1 mps 747 mmHg 71%
    04:00 +22°C° 0 mm 1 mps 747 mmHg 74%
    05:00 +21°C° 0 mm 1 mps 747 mmHg 76%
    06:00 +23°C° 0 mm 2 mps 747 mmHg 68%
    07:00 +25°C° 0 mm 2 mps 747 mmHg 60%
    08:00 +27°C° 0 mm 2 mps 747 mmHg 52%
    09:00 +30°C° 0 mm 2 mps 747 mmHg 44%
    10:00 +34°C° 0 mm 2 mps 747 mmHg 35%
    11:00 +37°C° 0 mm 3 mps 747 mmHg 27%
    12:00 +38°C° 0 mm 3 mps 746 mmHg 23%
    13:00 +41°C° 0 mm 4 mps 746 mmHg 19%
    14:00 +42°C° 0 mm 4 mps 746 mmHg 15%
    15:00 +41°C° 0 mm 5 mps 746 mmHg 18%
    16:00 +40°C° 0 mm 7 mps 745 mmHg 20%
    17:00 +39°C° 0 mm 8 mps 745 mmHg 22%
    18:00 +35°C° 0 mm 6 mps 746 mmHg 30%
    19:00 +32°C° 0 mm 5 mps 746 mmHg 39%
    20:00 +27°C° 0 mm 3 mps 746 mmHg 48%
    21:00 +26°C° 0 mm 3 mps 746 mmHg 54%
    22:00 +25°C° 0 mm 2 mps 746 mmHg 60%
    23:00 +23°C° 0 mm 2 mps 747 mmHg 66%

    29 August, Thursday

    Time Temperature Precipitation Wind Pressure Humidity
    00:00 +23°C° 0 mm 2 mps 746 mmHg 69%
    01:00 +22°C° 0 mm 1 mps 746 mmHg 73%
    02:00 +21°C° 0 mm 1 mps 746 mmHg 77%
    03:00 +21°C° 0 mm 1 mps 746 mmHg 80%
    04:00 +21°C° 0 mm 1 mps 746 mmHg 82%
    05:00 +20°C° 0 mm 1 mps 746 mmHg 85%
    06:00 +22°C° 0 mm 1 mps 746 mmHg 77%
    07:00 +24°C° 0 mm 2 mps 746 mmHg 70%
    08:00 +26°C° 0 mm 2 mps 746 mmHg 62%
    09:00 +28°C° 0 mm 2 mps 746 mmHg 52%
    10:00 +31°C° 0 mm 3 mps 746 mmHg 43%
    11:00 +35°C° 0 mm 3 mps 746 mmHg 33%
    12:00 +36°C° 0 mm 4 mps 746 mmHg 29%
    13:00 +38°C° 0 mm 4 mps 746 mmHg 26%
    14:00 +40°C° 0 mm 5 mps 745 mmHg 22%
    15:00 +39°C° 0 mm 5 mps 745 mmHg 25%
    16:00 +38°C° 0 mm 6 mps 745 mmHg 28%
    17:00 +36°C° 0 mm 7 mps 745 mmHg 31%
    18:00 +33°C° 0 mm 6 mps 745 mmHg 39%
    19:00 +29°C° 0 mm 4 mps 746 mmHg 47%
    20:00 +26°C° 0 mm 3 mps 746 mmHg 55%
    21:00 +25°C° 0 mm 2 mps 746 mmHg 61%
    22:00 +24°C° 0 mm 2 mps 746 mmHg 67%
    23:00 +21°C° 0 mm 2 mps 746 mmHg 73%

    30 August, Friday

    Time Temperature Precipitation Wind Pressure Humidity
    00:00 +21°C° 0 mm 2 mps 746 mmHg 78%
    01:00 +20°C° 0 mm 2 mps 746 mmHg 82%
    02:00 +19°C° 0 mm 2 mps 746 mmHg 86%
    03:00 +19°C° 0 mm 2 mps 746 mmHg 88%
    04:00 +20°C° 0 mm 1 mps 746 mmHg 89%
    05:00 +20°C° 0 mm 1 mps 746 mmHg 91%
    06:00 +20°C° 0 mm 2 mps 746 mmHg 83%
    07:00 +23°C° 0 mm 2 mps 746 mmHg 75%
    08:00 +24°C° 0 mm 2 mps 747 mmHg 68%
    09:00 +27°C° 0 mm 3 mps 747 mmHg 58%
    10:00 +29°C° 0 mm 3 mps 747 mmHg 48%
    11:00 +33°C° 0 mm 3 mps 747 mmHg 38%
    12:00 +34°C° 0 mm 4 mps 746 mmHg 34%
    13:00 +36°C° 0 mm 5 mps 746 mmHg 29%
    14:00 +38°C° 0 mm 6 mps 746 mmHg 25%
    15:00 +36°C° 0 mm 6 mps 746 mmHg 27%
    16:00 +35°C° 0 mm 7 mps 746 mmHg 29%
    17:00 +34°C° 0 mm 8 mps 745 mmHg 31%
    18:00 +30°C° 0 mm 6 mps 746 mmHg 42%
    19:00 +27°C° 0 mm 5 mps 746 mmHg 52%
    20:00 +23°C° 0 mm 4 mps 746 mmHg 62%
    21:00 +22°C° 0 mm 3 mps 747 mmHg 68%
    22:00 +21°C° 0 mm 3 mps 747 mmHg 74%
    23:00 +20°C° 0 mm 2 mps 747 mmHg 81%

    31 August, Saturday

    Time Temperature Precipitation Wind Pressure Humidity
    00:00 +19°C° 0 mm 2 mps 747 mmHg 83%
    01:00 +19°C° 0 mm 2 mps 747 mmHg 85%
    02:00 +18°C° 0 mm 2 mps 747 mmHg 87%
    03:00 +18°C° 0 mm 2 mps 747 mmHg 88%
    04:00 +18°C° 0 mm 2 mps 747 mmHg 89%
    05:00 +17°C° 0 mm 2 mps 747 mmHg 90%
    06:00 +19°C° 0 mm 2 mps 747 mmHg 82%
    07:00 +20°C° 0 mm 2 mps 747 mmHg 74%
    08:00 +22°C° 0 mm 3 mps 747 mmHg 65%
    09:00 +26°C° 0 mm 3 mps 747 mmHg 55%
    10:00 +28°C° 0 mm 3 mps 747 mmHg 46%
    11:00 +31°C° 0 mm 3 mps 747 mmHg 36%
    12:00 +33°C° 0 mm 4 mps 747 mmHg 32%
    13:00 +35°C° 0 mm 4 mps 746 mmHg 27%
    14:00 +37°C° 0 mm 5 mps 746 mmHg 23%
    15:00 +36°C° 0 mm 6 mps 746 mmHg 25%
    16:00 +35°C° 0 mm 6 mps 746 mmHg 26%
    17:00 +35°C° 0 mm 7 mps 746 mmHg 28%
    18:00 +30°C° 0 mm 6 mps 746 mmHg 38%
    19:00 +27°C° 0 mm 5 mps 746 mmHg 48%
    20:00 +24°C° 0 mm 3 mps 747 mmHg 59%
    21:00 +22°C° 0 mm 3 mps 747 mmHg 64%
    22:00 +20°C° 0 mm 2 mps 747 mmHg 69%
    23:00 +19°C° 0 mm 2 mps 748 mmHg 74%
    Show more